[[{"header":{"parameterUnit":"m.s-1","parameterCategory":1,"la1":30.2991,"la2":30.254,"lo1":-89.0895,"lo2":-89.0444,"dy":0.0017,"dx":0.0017,"nx":28,"ny":28,"refTime":"2024-08-07T03:00:00:Z","depth":0,"parameterNumber":2,"parameterNumberName":"U-component_of_WINDS"},"data":[0,0,0,0,0,0,0,0,0,0,0,0,0,0,0,0,0,0,0,0,0,0,0,0,0,0,0,0,0,0,0,0,0,0,0,0,0,0,0,0,0,0,0,0,0,0,0,0,0,0,0,0,0,0,0,0,0,0,4.3708,4.3709,0,4.3822,4.3823,4.3825,4.3726,4.3722,4.3718,4.3714,4.3836,4.3843,4.385,0,0,0,0,0,0,0,0,0,0,0,0,0,4.3412,4.3418,4.3708,4.3709,4.3711,4.3822,4.3823,4.3825,4.3727,4.3722,4.3717,4.3712,4.3834,4.3842,4.3851,0,0,0,0,0,0,0,0,0,0,0,0,0,4.3535,4.342,4.3708,4.3675,4.3673,4.3821,4.3823,4.3825,4.3728,4.3722,4.3716,4.371,4.3831,4.3842,4.3852,4.404,0,0,4.3884,4.3889,0,0,0,0,0,0,0,0,4.3528,4.3546,4.3679,4.3678,4.3676,4.3753,4.3763,4.3897,4.373,4.3708,4.3714,4.3707,4.3814,4.3826,4.3861,4.4045,4.405,4.3885,4.3892,4.3896,4.3899,0,0,0,0,0,0,0,4.352,4.354,4.3753,4.3681,4.3679,4.3657,4.3668,4.3788,4.3794,4.3709,4.3702,4.3717,4.3812,4.3851,4.3863,4.4052,4.3885,4.3894,4.3901,4.3905,4.4399,4.4406,0,0,0,0,0,0,4.3514,4.3534,4.375,4.3757,4.3585,4.3667,4.3679,4.3735,4.3792,4.3795,4.3722,4.3712,4.3836,4.3851,4.3867,4.4092,4.3896,4.3906,4.3912,4.4393,4.4401,4.4408,0,0,0,0,0,0,4.3508,4.3534,4.3745,4.3643,4.3669,4.3679,4.3742,4.374,4.3779,4.3802,4.3803,4.376,4.3831,4.3852,4.3998,4.4095,4.3911,4.392,4.4385,4.4395,4.4404,4.4543,0,0,0,0,0,0,4.3499,4.3532,4.3602,4.3646,4.3674,4.3873,4.3748,4.3747,4.3797,4.3784,4.3838,4.3841,4.3828,4.3982,4.4008,4.4106,4.3929,4.4376,4.4389,4.4401,4.453,4.4557,4.458,0,0,0,0,0,4.3489,4.3637,4.3606,4.3633,4.3762,4.3878,4.3895,4.3876,4.3805,4.3876,4.3891,4.3839,4.408,4.3998,4.4026,4.4129,4.437,4.4385,4.44,4.4519,4.4552,4.4579,0,0,0,0,0,0,4.3606,4.3642,4.3608,4.3774,4.3824,4.3861,4.3951,4.3911,4.3983,4.3969,4.3944,4.3957,4.4111,4.4134,4.4042,4.4315,4.4214,4.4235,4.4294,4.4325,4.435,4.4342,4.3937,0,0,0,0,0,4.3651,4.3741,4.3768,4.3912,4.3939,4.3941,4.3991,4.3972,4.4023,4.4044,4.407,4.4123,4.421,4.4269,4.4351,4.4532,4.4544,4.4617,4.4642,4.4662,4.4682,4.4783,4.4816,4.4458,4.4458,4.4458,0,0,4.3745,4.3776,4.3835,4.3937,4.3973,4.4069,4.3959,4.4065,4.4136,4.406,4.42,4.4221,4.4279,4.4444,4.4518,4.4468,4.4783,4.4682,4.4698,4.4707,4.4802,4.4836,4.4866,4.4469,4.4467,4.4465,0,0,4.3966,4.3998,4.4122,4.416,4.4216,4.4217,4.4247,4.4291,4.4302,4.444,4.4386,4.4472,4.4623,4.4667,4.4709,4.4948,4.4904,4.4976,4.5107,4.5205,4.5233,4.5258,4.5346,4.5378,4.4995,4.4995,4.4995,0,4.4077,4.4217,4.4192,4.4302,4.4349,4.4283,4.4411,4.445,4.4531,4.4566,4.4508,4.4697,4.4731,4.4907,4.4966,4.5001,4.5037,4.497,4.5231,4.5256,4.5279,4.5362,4.5395,4.5004,4.5003,4.5002,4.5001,0,4.4352,4.4451,4.4545,4.4623,4.4681,4.4799,4.4794,4.4856,4.4832,4.484,4.4984,4.5022,4.5111,4.5151,4.513,4.5325,4.5293,4.5234,4.5132,4.5322,4.54,4.5431,4.5016,4.5013,4.501,4.5008,0,0,4.4651,4.4713,4.4749,4.4784,4.4841,4.4918,4.5034,4.512,4.5175,4.5233,4.5332,4.5462,4.5408,4.5456,4.5438,4.5524,4.5715,4.5455,4.5456,4.5504,4.5936,4.5982,4.6019,4.5685,4.569,4.5695,4.5932,0,4.4876,4.5077,4.5057,4.5249,4.5341,4.528,4.5382,4.5429,4.544,4.5521,4.5532,4.5626,4.5546,4.5575,4.5657,4.5674,4.5801,4.5656,4.5779,4.5784,4.5769,4.6059,4.6108,4.6329,4.5962,4.5967,4.5971,0,4.5166,4.5233,4.5434,4.5478,4.5516,4.5607,4.5686,4.5763,4.5817,4.5818,4.5873,4.5841,4.596,4.5855,4.6021,4.5923,4.5972,4.5988,4.5996,4.6009,4.589,4.6083,4.6399,4.6434,4.6018,4.6014,4.6011,0,4.5367,4.5508,4.5646,4.5678,4.5733,4.5799,4.5825,4.5872,4.5926,4.5995,4.603,4.6112,4.6159,4.6224,4.6217,4.614,4.6387,4.628,4.6394,4.6395,4.6451,4.6448,4.6782,4.6479,4.6478,4.6477,4.6477,0,4.5622,4.5748,4.5737,4.5823,4.5963,4.594,4.608,4.6098,4.6141,4.6231,4.6183,4.6269,4.6253,4.6339,4.6334,4.6474,4.6495,4.6501,4.6499,4.6507,4.6507,4.6541,4.6526,4.6486,4.6484,4.6483,4.6481,0,4.5871,4.5869,4.6016,4.6056,4.6069,4.6171,4.6205,4.6288,4.6293,4.6408,4.6434,4.6444,4.6544,4.6542,4.6655,4.6652,4.6825,4.6803,4.6807,4.6803,4.6919,4.6909,4.7289,4.7339,4.7,4.7004,4.7006,0,4.6035,4.613,4.618,4.6236,4.6266,4.6357,4.6411,4.6393,4.6452,4.6521,4.6595,4.669,4.6765,4.6927,4.6946,4.7033,4.7015,4.7143,4.7028,4.7034,4.7021,4.7016,4.7027,4.7166,4.717,4.7173,4.7175,0,4.6328,4.6322,4.6401,4.6481,4.6546,4.6609,4.6666,4.6715,4.6703,4.6772,4.6872,4.6931,4.7046,4.7142,4.7226,4.7255,4.7216,4.7211,4.7242,4.7253,4.7252,4.7257,4.687,4.7203,4.72,4.7198,4.7196,4.7195,4.6541,4.6624,4.6672,4.6762,4.6803,4.6858,4.6937,4.6953,4.7036,4.7127,4.7112,4.7225,4.7278,4.7386,4.7423,4.7512,4.7468,4.7513,4.7525,4.7537,4.7551,4.7235,4.7527,4.7527,4.7526,4.7525,4.7525,0,4.6833,4.6861,4.6944,4.7025,4.7097,4.705,4.7111,4.7175,4.7275,4.7326,4.7401,4.7518,4.761,4.7637,4.7727,4.7794,4.7778,4.7818,4.7815,4.7823,4.7585,4.7549,4.783,4.783,4.783,4.783,4.783,4.783,4.6994,4.7132,4.7132,4.7291,4.7318,4.7427,4.7467,4.7518,4.7559,4.7691,4.7767,4.7783,4.7825,4.7918,4.8002,4.8008,4.8045,4.8093,4.8092,4.787,4.7839,4.781,4.7777,4.8101,4.8101,4.8323,4.8325,4.8326]},{"header":{"parameterUnit":"m.s-1","parameterCategory":1,"la1":30.2991,"la2":30.254,"lo1":-89.0895,"lo2":-89.0444,"dy":0.0017,"dx":0.0017,"nx":28,"ny":28,"refTime":"2024-08-07T03:00:00:Z","depth":0,"parameterNumber":3,"parameterNumberName":"V-component_of_WINDS"},"data":[0,0,0,0,0,0,0,0,0,0,0,0,0,0,0,0,0,0,0,0,0,0,0,0,0,0,0,0,0,0,0,0,0,0,0,0,0,0,0,0,0,0,0,0,0,0,0,0,0,0,0,0,0,0,0,0,0,0,-1.2209,-1.221,0,-1.2252,-1.2253,-1.2253,-1.2271,-1.2271,-1.2271,-1.2271,-1.2315,-1.2316,-1.2317,0,0,0,0,0,0,0,0,0,0,0,0,0,-1.2142,-1.2143,-1.2209,-1.221,-1.221,-1.2252,-1.2253,-1.2254,-1.2271,-1.2271,-1.2271,-1.2271,-1.2315,-1.2316,-1.2318,0,0,0,0,0,0,0,0,0,0,0,0,0,-1.2177,-1.2144,-1.2209,-1.2224,-1.2226,-1.2252,-1.2253,-1.2254,-1.2271,-1.2271,-1.2271,-1.2271,-1.2314,-1.2316,-1.2318,-1.2332,0,0,-1.2323,-1.2324,0,0,0,0,0,0,0,0,-1.2175,-1.2179,-1.2221,-1.2223,-1.2225,-1.2256,-1.2245,-1.228,-1.2271,-1.2254,-1.2271,-1.2271,-1.2296,-1.2299,-1.2307,-1.2334,-1.2336,-1.2324,-1.2325,-1.2326,-1.2326,0,0,0,0,0,0,0,-1.2172,-1.2178,-1.2226,-1.2222,-1.2224,-1.2229,-1.2234,-1.2252,-1.2275,-1.2256,-1.2257,-1.2262,-1.2297,-1.2305,-1.2308,-1.2337,-1.2324,-1.2325,-1.2326,-1.2327,-1.2378,-1.2378,0,0,0,0,0,0,-1.2168,-1.2175,-1.2225,-1.2228,-1.2199,-1.223,-1.2236,-1.2246,-1.2275,-1.2279,-1.2262,-1.2263,-1.2302,-1.2306,-1.231,-1.2329,-1.2326,-1.2327,-1.2328,-1.2378,-1.2378,-1.2378,0,0,0,0,0,0,-1.2166,-1.2172,-1.2223,-1.2202,-1.2209,-1.2231,-1.2244,-1.2247,-1.2256,-1.228,-1.2284,-1.2267,-1.2302,-1.2307,-1.2327,-1.2331,-1.2328,-1.233,-1.2378,-1.2378,-1.2378,-1.2367,0,0,0,0,0,0,-1.2164,-1.2171,-1.2177,-1.2202,-1.221,-1.2239,-1.2244,-1.2248,-1.226,-1.2261,-1.2285,-1.2289,-1.2303,-1.2324,-1.2328,-1.2333,-1.2331,-1.2377,-1.2378,-1.2378,-1.2367,-1.2367,-1.2367,0,0,0,0,0,-1.2162,-1.2172,-1.2177,-1.2183,-1.2217,-1.2239,-1.2244,-1.2259,-1.226,-1.2266,-1.2281,-1.2289,-1.233,-1.2326,-1.2331,-1.2337,-1.2377,-1.2378,-1.2378,-1.2367,-1.2367,-1.2367,0,0,0,0,0,0,-1.2146,-1.2175,-1.2181,-1.22,-1.2217,-1.2242,-1.225,-1.2258,-1.2275,-1.2275,-1.2294,-1.2299,-1.2317,-1.2329,-1.2323,-1.2352,-1.2354,-1.2356,-1.2344,-1.2344,-1.2344,-1.234,-1.2333,0,0,0,0,0,-1.2145,-1.216,-1.2185,-1.2199,-1.2207,-1.2227,-1.2237,-1.2247,-1.2266,-1.2273,-1.2289,-1.2307,-1.2324,-1.2334,-1.2351,-1.2369,-1.2375,-1.2376,-1.2375,-1.2375,-1.2376,-1.2387,-1.2388,-1.238,-1.238,-1.238,0,0,-1.2142,-1.216,-1.2169,-1.2196,-1.221,-1.2226,-1.2233,-1.2249,-1.226,-1.2275,-1.2294,-1.2307,-1.2328,-1.2346,-1.2355,-1.2357,-1.238,-1.2376,-1.2375,-1.2377,-1.2387,-1.2388,-1.2389,-1.238,-1.238,-1.238,0,0,-1.2146,-1.2161,-1.2174,-1.2189,-1.2211,-1.2224,-1.2227,-1.2251,-1.226,-1.228,-1.2291,-1.2306,-1.2334,-1.2349,-1.236,-1.2369,-1.2377,-1.2374,-1.2373,-1.2384,-1.2384,-1.2385,-1.2388,-1.2389,-1.2376,-1.2376,-1.2376,0,-1.214,-1.2164,-1.218,-1.2196,-1.2207,-1.2222,-1.2236,-1.2249,-1.2275,-1.2283,-1.2284,-1.2321,-1.2336,-1.2358,-1.2361,-1.2369,-1.2373,-1.2372,-1.2383,-1.2384,-1.2384,-1.2388,-1.2389,-1.2375,-1.2375,-1.2375,-1.2375,0,-1.2156,-1.2172,-1.218,-1.2205,-1.2218,-1.2233,-1.2251,-1.2262,-1.2272,-1.2285,-1.2305,-1.2323,-1.2345,-1.2351,-1.236,-1.2375,-1.2375,-1.2379,-1.2381,-1.2384,-1.2388,-1.2389,-1.2374,-1.2375,-1.2375,-1.2375,0,0,-1.215,-1.2184,-1.2187,-1.2199,-1.2224,-1.2237,-1.2253,-1.2273,-1.2283,-1.23,-1.2314,-1.2338,-1.2343,-1.2355,-1.2366,-1.2375,-1.2382,-1.2379,-1.2379,-1.2379,-1.2399,-1.2396,-1.2397,-1.2387,-1.2388,-1.2388,-1.2398,0,-1.2157,-1.2185,-1.22,-1.2222,-1.2238,-1.2252,-1.2265,-1.2282,-1.2295,-1.231,-1.2325,-1.2342,-1.2346,-1.2354,-1.2363,-1.2379,-1.2386,-1.2378,-1.24,-1.2401,-1.2394,-1.2399,-1.2395,-1.2403,-1.2399,-1.2399,-1.24,0,-1.2168,-1.2186,-1.2209,-1.2234,-1.2241,-1.2252,-1.2273,-1.2287,-1.2307,-1.2316,-1.233,-1.2341,-1.2358,-1.2359,-1.2383,-1.2378,-1.2387,-1.2396,-1.2397,-1.2399,-1.24,-1.2401,-1.2406,-1.2408,-1.2402,-1.2402,-1.2402,0,-1.2162,-1.2192,-1.221,-1.2219,-1.2248,-1.2256,-1.2268,-1.2288,-1.23,-1.2318,-1.2325,-1.2345,-1.2356,-1.2371,-1.2387,-1.2386,-1.2409,-1.2412,-1.2417,-1.2417,-1.2421,-1.2421,-1.2428,-1.2428,-1.2428,-1.2428,-1.2428,0,-1.2168,-1.2182,-1.2207,-1.2218,-1.2234,-1.2252,-1.2267,-1.2281,-1.2298,-1.2312,-1.2326,-1.2339,-1.2359,-1.2375,-1.2388,-1.2405,-1.241,-1.2418,-1.2421,-1.2417,-1.2416,-1.2423,-1.2423,-1.2428,-1.2428,-1.2428,-1.2428,0,-1.2164,-1.2181,-1.2202,-1.2227,-1.2234,-1.2244,-1.2266,-1.2278,-1.2292,-1.2309,-1.2314,-1.2336,-1.2355,-1.2373,-1.2398,-1.2407,-1.2425,-1.2429,-1.2418,-1.242,-1.2424,-1.2423,-1.2436,-1.2439,-1.2437,-1.2437,-1.2437,0,-1.2166,-1.2177,-1.2204,-1.2214,-1.2226,-1.2243,-1.2255,-1.2273,-1.2285,-1.2309,-1.2317,-1.2337,-1.2354,-1.2384,-1.2402,-1.2421,-1.2426,-1.2429,-1.2429,-1.2424,-1.2426,-1.2425,-1.2427,-1.2429,-1.2429,-1.2429,-1.2429,0,-1.2169,-1.2177,-1.2194,-1.2214,-1.2228,-1.2245,-1.2262,-1.227,-1.2291,-1.2304,-1.2324,-1.2337,-1.2363,-1.2382,-1.2404,-1.2417,-1.2426,-1.2429,-1.2431,-1.2426,-1.242,-1.2423,-1.2417,-1.2428,-1.2428,-1.2428,-1.2428,-1.2428,-1.2168,-1.2179,-1.2199,-1.2218,-1.2233,-1.2248,-1.226,-1.2276,-1.2292,-1.2315,-1.2325,-1.2345,-1.2365,-1.2395,-1.2408,-1.2424,-1.2426,-1.2429,-1.243,-1.243,-1.243,-1.2417,-1.2428,-1.2428,-1.2428,-1.2428,-1.2428,0,-1.2172,-1.2186,-1.2203,-1.2226,-1.2241,-1.2249,-1.2268,-1.228,-1.2297,-1.2315,-1.2331,-1.2354,-1.2374,-1.2393,-1.2414,-1.2423,-1.2428,-1.2428,-1.2427,-1.243,-1.2426,-1.2422,-1.2424,-1.2424,-1.2424,-1.2423,-1.2423,-1.2423,-1.2175,-1.2194,-1.2204,-1.223,-1.2244,-1.2264,-1.2274,-1.2289,-1.2303,-1.2328,-1.2344,-1.2357,-1.2376,-1.2398,-1.2416,-1.2422,-1.2429,-1.2427,-1.2434,-1.243,-1.243,-1.243,-1.2427,-1.2429,-1.2429,-1.2436,-1.2436,-1.2436]}]]